TimeCDT,TemperatureF,Dew PointF,Humidity,Sea Level PressureIn,VisibilityMPH,Wind Direction,Wind SpeedMPH,Gust SpeedMPH,PrecipitationIn,Events,Conditions,WindDirDegrees,DateUTC
12:13 AM,62.6,59.0,88,30.03,10.0,Calm,Calm,-,N/A,,Clear,0,2013-07-25 05:13:00
12:33 AM,62.6,59.0,88,30.03,10.0,SSW,3.5,-,N/A,,Clear,200,2013-07-25 05:33:00
12:53 AM,62.6,59.0,88,30.03,10.0,Calm,Calm,-,N/A,,Clear,0,2013-07-25 05:53:00
1:13 AM,62.6,60.8,94,30.02,10.0,SW,3.5,-,N/A,,Clear,220,2013-07-25 06:13:00
1:33 AM,62.6,60.8,94,30.02,10.0,Calm,Calm,-,N/A,,Clear,0,2013-07-25 06:33:00
1:53 AM,64.4,60.8,88,30.02,10.0,SSW,3.5,-,N/A,,Scattered Clouds,200,2013-07-25 06:53:00
2:13 AM,64.4,59.0,83,30.02,10.0,Calm,Calm,-,N/A,,Clear,0,2013-07-25 07:13:00
2:33 AM,64.4,59.0,83,30.02,10.0,Calm,Calm,-,N/A,,Clear,0,2013-07-25 07:33:00
2:53 AM,64.4,59.0,83,30.01,10.0,SSW,4.6,-,N/A,,Clear,210,2013-07-25 07:53:00
3:13 AM,64.4,59.0,83,30.01,10.0,SSW,4.6,-,N/A,,Clear,210,2013-07-25 08:13:00
3:33 AM,64.4,59.0,83,30.01,10.0,SSW,3.5,-,N/A,,Clear,200,2013-07-25 08:33:00
3:53 AM,64.4,59.0,83,30.01,10.0,SSW,3.5,-,N/A,,Clear,210,2013-07-25 08:53:00
4:13 AM,64.4,59.0,83,30.00,10.0,SSW,4.6,-,N/A,,Clear,200,2013-07-25 09:13:00
4:33 AM,64.4,59.0,83,30.01,10.0,Calm,Calm,-,N/A,,Clear,0,2013-07-25 09:33:00
4:53 AM,64.4,59.0,83,30.01,10.0,SSW,3.5,-,N/A,,Clear,200,2013-07-25 09:53:00
5:13 AM,62.6,59.0,88,30.01,10.0,SSW,3.5,-,N/A,,Clear,200,2013-07-25 10:13:00
5:33 AM,62.6,59.0,88,30.01,10.0,South,4.6,-,N/A,,Clear,190,2013-07-25 10:33:00
5:53 AM,64.4,59.0,83,30.00,10.0,SSW,3.5,-,N/A,,Clear,210,2013-07-25 10:53:00
6:13 AM,64.4,57.2,77,30.01,10.0,SW,3.5,-,N/A,,Scattered Clouds,220,2013-07-25 11:13:00
6:33 AM,64.4,57.2,77,30.01,10.0,SW,5.8,-,N/A,,Clear,230,2013-07-25 11:33:00
6:53 AM,64.4,57.2,77,30.01,10.0,SW,9.2,-,N/A,,Clear,230,2013-07-25 11:53:00
7:13 AM,64.4,57.2,77,30.01,10.0,SW,6.9,-,N/A,,Clear,230,2013-07-25 12:13:00
7:33 AM,64.4,57.2,77,30.01,10.0,SW,9.2,-,N/A,,Scattered Clouds,230,2013-07-25 12:33:00
7:53 AM,64.4,57.2,77,30.03,10.0,West,3.5,-,N/A,,Mostly Cloudy,280,2013-07-25 12:53:00
8:13 AM,64.4,57.2,77,30.02,10.0,SW,4.6,-,N/A,,Mostly Cloudy,220,2013-07-25 13:13:00
8:33 AM,66.2,59.0,78,30.02,10.0,SW,5.8,-,N/A,,Scattered Clouds,230,2013-07-25 13:33:00
8:53 AM,69.8,60.8,73,30.02,10.0,SW,4.6,-,N/A,,Scattered Clouds,230,2013-07-25 13:53:00
9:13 AM,71.6,62.6,73,30.02,10.0,SW,5.8,-,N/A,,Scattered Clouds,230,2013-07-25 14:13:00
9:33 AM,75.2,62.6,65,30.01,10.0,SW,5.8,-,N/A,,Clear,230,2013-07-25 14:33:00
9:53 AM,77.0,62.6,61,30.02,10.0,SW,8.1,-,N/A,,Scattered Clouds,230,2013-07-25 14:53:00
10:13 AM,77.0,62.6,61,30.01,10.0,SW,9.2,-,N/A,,Scattered Clouds,230,2013-07-25 15:13:00
10:33 AM,77.0,62.6,61,30.01,10.0,SW,10.4,-,N/A,,Clear,230,2013-07-25 15:33:00
10:53 AM,78.8,64.4,61,30.02,10.0,SW,6.9,-,N/A,,Clear,230,2013-07-25 15:53:00
11:13 AM,80.6,62.6,54,30.01,10.0,SW,13.8,17.3,N/A,,Scattered Clouds,230,2013-07-25 16:13:00
11:33 AM,80.6,64.4,58,30.02,10.0,SW,8.1,-,N/A,,Mostly Cloudy,230,2013-07-25 16:33:00
11:53 AM,80.6,64.4,58,30.01,10.0,SW,10.4,-,N/A,,Mostly Cloudy,230,2013-07-25 16:53:00
12:13 PM,82.4,64.4,54,30.01,10.0,WSW,8.1,-,N/A,,Scattered Clouds,240,2013-07-25 17:13:00
12:33 PM,82.4,64.4,54,30.00,10.0,SW,9.2,-,N/A,,Clear,230,2013-07-25 17:33:00
12:53 PM,80.6,64.4,58,29.99,10.0,SW,8.1,-,N/A,,Clear,230,2013-07-25 17:53:00
1:13 PM,80.6,64.4,58,29.98,10.0,SW,10.4,-,N/A,,Scattered Clouds,230,2013-07-25 18:13:00
1:33 PM,82.4,64.4,54,29.97,10.0,SW,10.4,-,N/A,Thunderstorm,Clear,230,2013-07-25 18:33:00
1:53 PM,82.4,62.6,51,29.95,10.0,SW,8.1,17.3,N/A,,Clear,230,2013-07-25 18:53:00
2:13 PM,84.2,62.6,48,29.95,10.0,SW,9.2,17.3,N/A,Thunderstorm,Clear,230,2013-07-25 19:13:00
2:33 PM,82.4,60.8,48,29.95,10.0,SW,12.7,20.7,N/A,,Scattered Clouds,230,2013-07-25 19:33:00
2:53 PM,84.2,62.6,48,29.95,10.0,WSW,12.7,18.4,N/A,,Scattered Clouds,240,2013-07-25 19:53:00
3:13 PM,73.4,60.8,65,30.00,10.0,North,19.6,25.3,N/A,,Mostly Cloudy,360,2013-07-25 20:13:00
3:33 PM,66.2,60.8,83,30.00,7.0,NNE,10.4,23.0,N/A,Thunderstorm,Thunderstorm,30,2013-07-25 20:33:00
3:53 PM,64.4,62.6,94,30.00,5.0,ESE,5.8,-,0.01,Rain-Thunderstorm,Light Thunderstorms and Rain,120,2013-07-25 20:53:00
4:13 PM,64.4,62.6,94,30.01,4.0,NE,4.6,-,0.06,Rain-Thunderstorm,Thunderstorms and Rain,50,2013-07-25 21:13:00
4:33 PM,64.4,62.6,94,30.02,2.0,SSE,8.1,-,0.39,Rain-Thunderstorm,Heavy Thunderstorms and Rain,160,2013-07-25 21:33:00
4:53 PM,64.4,62.6,94,30.01,10.0,South,6.9,-,N/A,Rain-Thunderstorm,Light Thunderstorms and Rain,170,2013-07-25 21:53:00
5:13 PM,64.4,64.4,100,29.98,7.0,East,6.9,-,0.02,Rain,Rain,90,2013-07-25 22:13:00
5:33 PM,66.2,66.2,100,29.94,10.0,ESE,9.2,-,0.05,Rain,Light Rain,110,2013-07-25 22:33:00
5:53 PM,68.0,66.2,94,29.95,10.0,SSE,5.8,-,N/A,,Clear,160,2013-07-25 22:53:00
6:13 PM,68.0,64.4,88,29.95,10.0,SSE,5.8,-,N/A,,Clear,160,2013-07-25 23:13:00
6:33 PM,68.0,64.4,88,29.95,10.0,South,5.8,-,N/A,,Scattered Clouds,170,2013-07-25 23:33:00
6:53 PM,69.8,66.2,88,29.95,10.0,SSE,6.9,-,N/A,,Mostly Cloudy,160,2013-07-25 23:53:00
7:13 PM,68.0,64.4,88,29.96,10.0,South,4.6,-,N/A,,Scattered Clouds,170,2013-07-26 00:13:00
7:33 PM,68.0,64.4,88,29.96,10.0,South,5.8,-,N/A,,Mostly Cloudy,180,2013-07-26 00:33:00
7:53 PM,68.0,64.4,88,29.95,10.0,SSE,4.6,-,N/A,,Scattered Clouds,150,2013-07-26 00:53:00
8:13 PM,66.2,64.4,94,29.96,10.0,SSE,6.9,-,N/A,Thunderstorm,Clear,160,2013-07-26 01:13:00
8:33 PM,66.2,62.6,88,29.97,10.0,South,11.5,-,N/A,,Mostly Cloudy,180,2013-07-26 01:33:00
8:53 PM,66.2,62.6,88,29.97,10.0,South,10.4,-,N/A,,Mostly Cloudy,190,2013-07-26 01:53:00
9:13 PM,66.2,62.6,88,29.98,10.0,South,11.5,17.3,N/A,,Clear,180,2013-07-26 02:13:00
9:33 PM,66.2,62.6,88,29.98,10.0,South,9.2,-,N/A,,Clear,180,2013-07-26 02:33:00
9:53 PM,66.2,62.6,88,29.98,10.0,South,9.2,-,N/A,,Clear,180,2013-07-26 02:53:00
10:13 PM,66.2,62.6,88,29.98,10.0,South,9.2,-,N/A,,Clear,180,2013-07-26 03:13:00
10:33 PM,66.2,62.6,88,29.99,10.0,South,11.5,18.4,N/A,,Clear,190,2013-07-26 03:33:00
10:53 PM,66.2,62.6,88,29.98,10.0,South,11.5,16.1,N/A,,Clear,190,2013-07-26 03:53:00
11:14 PM,66.2,62.6,88,29.98,10.0,South,10.4,16.1,N/A,,Scattered Clouds,190,2013-07-26 04:14:00
11:33 PM,64.4,62.6,94,29.98,10.0,SSW,10.4,-,N/A,,Scattered Clouds,200,2013-07-26 04:33:00
11:53 PM,64.4,62.6,94,29.98,10.0,South,8.1,-,N/A,,Mostly Cloudy,190,2013-07-26 04:53:00